Location: Carri�res
(48.9069°N, 2.1792°E)
Time: 11:46:03
(UTC+00:00)

deb Kosmos- 1898 - Pass Details

Date: 26 July 2021
Orbit: 731 x 754 km, 74.0° (Epoch: 18 September)

Event Time Altitude Azimuth Distance (km) Brightness Sun altitude
Exits shadow 01:36:24 - 138° (SE) 2,834 ? -18.2°
Reaches altitude 10° 01:39:00 10° 117° (ESE) 2,251 ? -18.1°
Maximum altitude 01:41:05 13° 92° (E) 2,086 ? -17.9°
Drops below altitude 10° 01:43:11 10° 68° (ENE) 2,265 ? -17.8°
Sets 01:46:56 0° 40° (NE) 3,201 ? -17.5°
